{"data":{"norad_id":43809,"intl_designator":"2018-099BD","name":"CENTAURI-1","alt_names":[],"object_type":"PAYLOAD","status":"ACTIVE","operator":null,"country":"AUS","launch_date":"2018-12-03","launch_site_code":"AFWTR","launch_vehicle":null,"mission":null,"orbit_class":"UNKNOWN","rcs_meters":null,"size_class":null,"mass_kg":null,"dimensions":null,"purposes":[],"wikipedia_slug":null,"has_3d_model":false,"image_url":null,"decayed_at":null,"tle_current":{"epoch":"2026-09-19T09:54:09.695808Z","epoch_age_seconds":152285,"freshness":"FRESH","line1":"1 43809U 18099BD  26262.41261222  .00003561  00000+0  18230-3 0  9990","line2":"2 43809  97.4126 312.1113 0013871   7.5338 352.6101 15.17171366426786","mean_motion":15.17171366,"eccentricity":0.0013871,"inclination_deg":97.4126,"raan_deg":312.1113,"arg_perigee_deg":7.5338,"mean_anomaly_deg":352.6101,"bstar":0.0001823,"rev_number":42678,"period_min":94.913470704139,"perigee_km":504.83371179446,"apogee_km":523.95497224349,"semimajor_km":6892.531342019,"source":"CELESTRAK","updated_at":"2026-09-20T09:00:14.409909Z"}}}